Overview Statistics Trail Chart Weather Telemetry Raw packets
 

This is the latest recevied weather packets stored in our database for station/object OK1VOF-13. If no packets are shown the sender has not sent any weather packets the latest 10 day(s).

<< 1 2 3 4 5 >>
Time Temp. Humidity Pressure Rain* Wind** Luminosity Snow
1788598194 17.22° C 68% 1021.3 hPa 0 mm - - -
1788597896 17.22° C 68% 1021 hPa 0 mm - - -
1788597603 17.22° C 68% 1020.9 hPa 0 mm - - -
1788597304 17.22° C 68% 1021 hPa 0 mm - - -
1788597006 16.67° C 68% 1021.1 hPa 0 mm - - -
1788596707 16.67° C 68% 1021 hPa 0 mm - - -
1788596109 16.67° C 68% 1020.9 hPa 0 mm - - -
1788595804 16.67° C 67% 1020.8 hPa 0 mm - - -
1788595505 16.67° C 68% 1020.7 hPa 0 mm - - -
1788594615 16.11° C 68% 1020.5 hPa 0 mm - - -
1788593121 15.56° C 67% 1020.4 hPa 0 mm - - -
1788592524 15.56° C 67% 1020.5 hPa 0 mm - - -
1788592222 15.56° C 67% 1020.4 hPa 0.76 mm - - -
1788591618 15.56° C 67% 1020.3 hPa 56.64 mm - - -
1788591316 15.56° C 67% 1020.3 hPa 56.64 mm - - -
1788590705 15° C 67% 1020.3 hPa 56.64 mm - - -
1788590404 15° C 67% 1020.3 hPa 56.64 mm - - -
1788589806 15° C 67% 1020.2 hPa 56.64 mm - - -
1788589504 15° C 67% 1020 hPa 56.64 mm - - -
1788588894 15° C 67% 1020 hPa 56.64 mm - - -
1788588591 15° C 67% 1019.9 hPa 56.39 mm - - -
1788588243 15° C 66% 1019.9 hPa 0 mm - - -
1788587945 15° C 66% 1019.9 hPa 0 mm - - -
1788587642 15° C 66% 1019.9 hPa 0.25 mm - - -
1788587045 15° C 66% 1019.3 hPa 0.25 mm - - -

* Rain latest hour (hover to see other rain measurements)
** Current wind speed in m/s (hover to see current wind gust speed)